CW2493 Weather Reports


time (UTC)temp
C
wind
direction
speed
KPH
gust
KPH
rain 1hr
cm
rain 24hr
cm
rain mn
cm
humidity
%
barometer
mb
20260504081549 4 159 0.0 0.0 0.00 0.00 0.00 60 1010.5
20260504050012 6 134 0.0 1.6 0.00 0.00 0.00 47 1011.2
20260504044604 6 148 0.0 0.0 0.00 0.00 0.00 47 1011.3
20260504043047 5 150 0.0 0.0 0.00 0.00 0.00 50 1011.3
20260504041532 5 121 0.0 0.0 0.00 0.00 0.00 53 1011.1
20260504040022 5 122 0.0 0.0 0.00 0.00 0.00 51 1011.0
20260504034503 5 159 0.0 0.0 0.00 0.00 0.00 51 1010.9
20260504033052 5 138 0.0 0.0 0.00 0.00 0.00 51 1010.8
20260504031546 5 136 0.0 0.0 0.00 0.00 0.00 50 1010.7
20260504030041 5 275 0.0 0.0 0.00 0.00 0.00 45 1010.6
20260504024527 6 268 0.0 0.0 0.00 0.00 0.00 45 1010.6
20260504023008 6 123 0.0 0.0 0.00 0.00 0.00 42 1010.8
20260504021557 5 127 0.0 0.0 0.00 0.00 0.00 47 1010.8
20260504020043 5 96 0.0 0.0 0.00 0.00 0.00 47 1010.9
20260504014528 7 139 0.0 0.0 0.00 0.00 0.00 40 1010.7
20260504013029 7 58 0.0 0.0 0.00 0.00 0.00 35 1010.6
20260504011516 7 189 0.0 1.6 0.00 0.00 0.00 37 1010.4
20260504010005 6 110 0.0 0.0 0.00 0.00 0.00 37 1010.2
20260504004526 7 119 0.0 0.0 0.00 0.00 0.00 35 1009.9
20260504003007 7 162 0.0 0.0 0.00 0.00 0.00 34 1009.7
20260504001611 8 139 0.0 3.2 0.00 0.00 0.00 33 1009.4
20260504000049 8 146 0.0 1.6 0.00 0.00 0.00 28 1009.2
20260503234545 8 255 0.0 0.0 0.00 0.00 0.00 28 1009.0
20260503233052 9 118 0.0 0.0 0.00 0.00 0.00 25 1008.9
20260503231543 9 267 0.0 11.3 0.00 0.00 0.00 24 1008.9
20260503230042 10 125 0.0 4.8 0.00 0.00 0.00 24 1008.8
20260503224531 10 155 0.0 1.6 0.00 0.00 0.00 26 1008.7
20260503223015 10 336 0.0 3.2 0.00 0.00 0.00 26 1008.9
20260503221504 10 77 0.0 17.7 0.00 0.00 0.00 26 1008.8
20260503220053 11 301 0.0 4.8 0.00 0.00 0.00 27 1008.8
20260503214543 10 135 0.0 12.9 0.00 0.00 0.00 31 1008.9
20260503213026 10 288 0.0 12.9 0.00 0.00 0.00 29 1008.9
20260503211516 10 12 0.0 12.9 0.00 0.00 0.00 30 1008.9
20260503210001 10 184 0.0 9.7 0.00 0.00 0.00 29 1009.0
20260503204554 10 37 0.0 0.0 0.00 0.00 0.00 29 1008.8
20260503203051 8 349 0.0 14.5 0.00 0.00 0.00 31 1009.0
20260503201529 8 88 0.0 14.5 0.00 0.00 0.00 32 1009.1
20260503200013 8 329 0.0 12.9 0.00 0.00 0.00 32 1009.1
20260503194503 8 122 1.6 29.0 0.00 0.00 0.00 31 1009.2
20260503193049 8 300 0.0 14.5 0.00 0.00 0.00 31 1009.4
20260503191532 8 261 0.0 25.7 0.00 0.00 0.00 31 1009.5
20260503190017 8 202 1.6 17.7 0.00 0.00 0.00 32 1009.5
20260503184610 8 13 0.0 17.7 0.00 0.00 0.00 34 1009.4
20260503184501 8 70 0.0 17.7 0.00 0.00 0.00 33 1009.3
20260503183108 8 329 1.6 11.3 0.00 0.00 0.00 32 1009.4
20260503181558 8 354 0.0 3.2 0.00 0.00 0.00 32 1009.5
20260503180057 8 140 0.0 12.9 0.00 0.00 0.00 31 1009.4
20260503174543 8 253 0.0 12.9 0.00 0.00 0.00 33 1009.3
20260503173027 7 313 0.0 0.0 0.00 0.00 0.00 34 1009.3
20260503171512 7 66 0.0 0.0 0.00 0.00 0.00 38 1009.3